Ballincollig, Ireland

4:21 PM GMT on January 23, 2018 (GMT +0000)
Ballincollig

Weather History for 03955 - December, 2012

Change the Weather History Date:

Tuesday, December 11, 2012

  Actual Average Record
Temperature  
Mean Temperature 40 °F -  
Max Temperature 44 °F 47 °F - ()
Min Temperature 37 °F 38 °F - ()
Degree Days  
Heating Degree Days 24    
Moisture  
Dew Point 36 °F    
Average Humidity 78    
Maximum Humidity 81    
Minimum Humidity 66    
Precipitation  
Precipitation 0.00 in 0.18 in - ()
Sea Level Pressure  
Sea Level Pressure 30.27 in    
Wind  
Wind Speed 13 mph ()    
Max Wind Speed 21 mph    
Max Gust Speed -    
Visibility 6.8 miles    
Events      
T = Trace of Precipitation, MM = Missing Value Source: Averaged Metar Reports

Daily Weather History Graph

Daily Weather History Graph

Search for Another Location

Airport or City:

Trip Planner

Search our weather history database for the weather conditions in past years. The results will help you decide how hot, cold, wet, or windy it might be!

Date:

Astronomy

Dec. 11, 2012 Rise Set
Actual Time 8:31 AM GMT 4:23 PM GMT
Civil Twilight 7:51 AM GMT 5:03 PM GMT
Nautical Twilight 7:07 AM GMT 5:46 PM GMT
Astronomical Twilight 6:26 AM GMT 6:27 PM GMT
Moon 6:01 AM GMT (12/11) 2:57 PM GMT (12/11)
Length of Visible Light 9h 12m
Length of Day
7h 51m
Waning Crescent, 5% of the Moon is Illuminated
Dec 11
Waning Crescent
Dec 13
New
Dec 20
First Quarter
Dec 28
Full
Jan 5
Last Quarter

Hourly Weather History & Observations

Time (GMT) Temp. Windchill Dew Point Humidity Pressure Visibility Wind Dir Wind Speed Gust Speed Precip Events Conditions
12:00 AM 41 °F - 36 °F 75% 30.37 in 16 mi ESE 8.9 mph - -   Mostly Cloudy
12:00 AM 41.0 °F 35.2 °F 35.6 °F 81% 30.33 in 6.2 mi ESE 9.2 mph - N/A   Mostly Cloudy
12:30 AM 41.0 °F 34.7 °F 35.6 °F 81% 30.33 in 6.2 mi ESE 10.4 mph - N/A   Mostly Cloudy
1:00 AM 41.0 °F 34.7 °F 35.6 °F 81% 30.33 in 6.2 mi ESE 10.4 mph - N/A   Mostly Cloudy
1:30 AM 41.0 °F 34.3 °F 35.6 °F 81% 30.33 in 6.2 mi ESE 11.5 mph - N/A   Mostly Cloudy
2:00 AM 41.0 °F 34.3 °F 35.6 °F 81% 30.33 in 6.2 mi SE 11.5 mph - N/A   Mostly Cloudy
2:30 AM 41.0 °F 33.5 °F 35.6 °F 81% 30.33 in 6.2 mi ESE 13.8 mph - N/A   Mostly Cloudy
3:00 AM 41.0 °F 33.9 °F 35.6 °F 81% 30.33 in 6.2 mi ESE 12.7 mph - N/A   Scattered Clouds
3:30 AM 41.0 °F 33.9 °F 33.8 °F 76% 30.33 in 6.2 mi SE 12.7 mph - N/A   Scattered Clouds
4:00 AM 41.0 °F 34.3 °F 35.6 °F 81% 30.33 in 6.2 mi SE 11.5 mph - N/A   Scattered Clouds
4:30 AM 41.0 °F 33.9 °F 35.6 °F 81% 30.33 in 6.2 mi SE 12.7 mph - N/A   Scattered Clouds
5:00 AM 41.0 °F 33.9 °F 35.6 °F 81% 30.33 in 6.2 mi SE 12.7 mph - N/A   Mostly Cloudy
5:30 AM 41.0 °F 33.9 °F 35.6 °F 81% 30.33 in 6.2 mi SE 12.7 mph - N/A   Mostly Cloudy
6:00 AM 41 °F - 36 °F 75% 30.35 in 16 mi SE 13.4 mph - -   Partly Cloudy
6:00 AM 41.0 °F 33.9 °F 35.6 °F 81% 30.33 in 6.2 mi SE 12.7 mph - N/A   Mostly Cloudy
6:30 AM 41.0 °F 33.5 °F 35.6 °F 81% 30.33 in 6.2 mi ESE 13.8 mph - N/A   Mostly Cloudy
7:00 AM 41.0 °F 33.9 °F 35.6 °F 81% 30.33 in 6.2 mi SE 12.7 mph - N/A   Mostly Cloudy
7:30 AM 41.0 °F 33.5 °F 35.6 °F 81% 30.33 in 6.2 mi SE 13.8 mph - N/A   Mostly Cloudy
8:00 AM 41.0 °F 33.5 °F 33.8 °F 76% 30.33 in 6.2 mi SE 13.8 mph - N/A   Mostly Cloudy
8:30 AM 41.0 °F 33.5 °F 35.6 °F 81% 30.33 in 6.2 mi SE 13.8 mph - N/A   Scattered Clouds
9:00 AM 41.0 °F 33.5 °F 35.6 °F 81% 30.33 in 6.2 mi SE 13.8 mph - N/A   Mostly Cloudy
9:30 AM 41.0 °F 33.5 °F 35.6 °F 81% 30.33 in 6.2 mi SE 13.8 mph - N/A   Mostly Cloudy
10:00 AM 42.8 °F 35.4 °F 35.6 °F 76% 30.33 in 6.2 mi SE 15.0 mph - N/A   Mostly Cloudy
10:30 AM 42.8 °F 34.8 °F 37.4 °F 81% 30.33 in 6.2 mi SE 17.3 mph - N/A   Mostly Cloudy
11:00 AM 42.8 °F 35.1 °F 35.6 °F 76% 30.30 in 6.2 mi SE 16.1 mph - N/A   Mostly Cloudy
11:30 AM 42.8 °F 34.3 °F 37.4 °F 81% 30.30 in 6.2 mi SE 19.6 mph - N/A   Mostly Cloudy
12:00 PM 44 °F - 38 °F 71% 30.33 in 22 mi SE 17.9 mph - -   Mostly Cloudy
12:00 PM 44.6 °F 36.9 °F 37.4 °F 76% 30.30 in 6.2 mi SE 18.4 mph - N/A   Mostly Cloudy
12:30 PM 44.6 °F 36.6 °F 37.4 °F 76% 30.30 in 6.2 mi SE 19.6 mph - N/A   Mostly Cloudy
1:00 PM 44.6 °F 36.6 °F 37.4 °F 76% 30.27 in 6.2 mi SE 19.6 mph - N/A   Mostly Cloudy
1:30 PM 44.6 °F 36.4 °F 37.4 °F 76% 30.27 in 6.2 mi SE 20.7 mph - N/A   Mostly Cloudy
2:00 PM 44.6 °F 36.4 °F 39.2 °F 81% 30.27 in 6.2 mi SE 20.7 mph - N/A   Mostly Cloudy
2:30 PM 44.6 °F 37.2 °F 37.4 °F 76% 30.27 in 6.2 mi SE 17.3 mph - N/A   Mostly Cloudy
3:00 PM 44.6 °F 37.2 °F 35.6 °F 71% 30.24 in 6.2 mi SE 17.3 mph - N/A   Overcast
3:30 PM 44.6 °F 37.2 °F 35.6 °F 71% 30.24 in - SE 17.3 mph - N/A   Overcast
4:00 PM 44.6 °F 36.9 °F 35.6 °F 71% 30.24 in 6.2 mi SE 18.4 mph - N/A   Overcast
4:30 PM 42.8 °F 34.8 °F 37.4 °F 81% 30.24 in 6.2 mi SSE 17.3 mph - N/A   Mostly Cloudy
5:00 PM 42.8 °F 34.8 °F 37.4 °F 81% 30.24 in 6.2 mi SE 17.3 mph - N/A   Mostly Cloudy
5:30 PM 42.8 °F 34.5 °F 35.6 °F 76% 30.21 in 6.2 mi SSE 18.4 mph - N/A   Overcast
6:00 PM 43 °F - 35 °F 66% 30.25 in 19 mi SSE 17.9 mph - -   Overcast
6:00 PM 42.8 °F 34.8 °F 35.6 °F 76% 30.21 in 6.2 mi SSE 17.3 mph - N/A   Overcast
6:30 PM 42.8 °F 34.8 °F 35.6 °F 76% 30.21 in 6.2 mi SSE 17.3 mph - N/A   Overcast
7:00 PM 42.8 °F 34.5 °F 35.6 °F 76% 30.21 in 6.2 mi SE 18.4 mph - N/A   Overcast
7:30 PM 42.8 °F 34.3 °F 35.6 °F 76% 30.18 in 6.2 mi SE 19.6 mph - N/A   Overcast
8:00 PM 42.8 °F 34.5 °F 35.6 °F 76% 30.18 in 6.2 mi SE 18.4 mph - N/A   Overcast
8:30 PM 42.8 °F 34.0 °F 37.4 °F 81% 30.18 in 6.2 mi SE 20.7 mph - N/A   Mostly Cloudy
9:00 PM 42.8 °F 34.3 °F 37.4 °F 81% 30.15 in 6.2 mi SE 19.6 mph - N/A   Mostly Cloudy
9:30 PM 42.8 °F 34.3 °F 37.4 °F 81% 30.15 in 6.2 mi SE 19.6 mph - N/A   Mostly Cloudy
10:00 PM 42.8 °F 34.3 °F 35.6 °F 76% 30.15 in 6.2 mi SE 19.6 mph - N/A   Mostly Cloudy
10:30 PM 42.8 °F 34.5 °F 35.6 °F 76% 30.15 in 6.2 mi SE 18.4 mph - N/A   Mostly Cloudy
11:00 PM 42.8 °F 34.3 °F 35.6 °F 76% 30.12 in 6.2 mi SE 19.6 mph - N/A   Mostly Cloudy
11:30 PM 42.8 °F 34.3 °F 37.4 °F 81% 30.12 in 6.2 mi SE 19.6 mph - N/A   Mostly Cloudy